This is the latest recevied weather packets stored in our database for station/object PA1CG-7. If no packets are shown the sender has not sent any weather packets the latest 10 day(s).
| Time | Temp. | Humidity | Pressure | Rain* | Wind** | Luminosity | Snow |
|---|---|---|---|---|---|---|---|
| 1777632737 | 22.22° C | 29% | 1023.5 hPa | 0 mm | - | - | - |
| 1777632137 | 21.67° C | 30% | 1023.5 hPa | 0 mm | - | - | - |
| 1777631537 | 21.67° C | 31% | 1023.6 hPa | 0 mm | - | - | - |
| 1777630936 | 21.11° C | 32% | 1023.6 hPa | 0 mm | - | - | - |
| 1777630336 | 21.11° C | 35% | 1023.7 hPa | 0 mm | - | - | - |
| 1777629737 | 21.11° C | 35% | 1023.8 hPa | 0 mm | - | - | - |
| 1777629136 | 20.56° C | 35% | 1023.9 hPa | 0 mm | - | - | - |
| 1777628536 | 20.56° C | 35% | 1024.1 hPa | 0 mm | - | - | - |
| 1777627936 | 20° C | 36% | 1024.3 hPa | 0 mm | - | - | - |
| 1777627337 | 19.44° C | 38% | 1024.1 hPa | 0 mm | - | - | - |
| 1777626736 | 19.44° C | 38% | 1024 hPa | 0 mm | - | - | - |
| 1777626136 | 18.89° C | 40% | 1024.2 hPa | 0 mm | - | - | - |
| 1777625536 | 18.33° C | 42% | 1024.2 hPa | 0 mm | - | - | - |
| 1777624936 | 18.33° C | 41% | 1024.3 hPa | 0 mm | - | - | - |
| 1777624336 | 17.78° C | 42% | 1024.2 hPa | 0 mm | - | - | - |
| 1777623736 | 17.22° C | 42% | 1024.3 hPa | 0 mm | - | - | - |
| 1777623136 | 17.22° C | 44% | 1024.4 hPa | 0 mm | - | - | - |
| 1777622536 | 16.67° C | 46% | 1024.5 hPa | 0 mm | - | - | - |
| 1777621936 | 16.11° C | 48% | 1024.5 hPa | 0 mm | - | - | - |
| 1777621336 | 16.11° C | 50% | 1024.5 hPa | 0 mm | - | - | - |
| 1777620736 | 15.56° C | 52% | 1024.6 hPa | 0 mm | - | - | - |
| 1777620136 | 15° C | 52% | 1024.6 hPa | 0 mm | - | - | - |
| 1777619536 | 14.44° C | 53% | 1024.5 hPa | 0 mm | - | - | - |
| 1777618936 | 13.89° C | 54% | 1024.6 hPa | 0 mm | - | - | - |
| 1777618336 | 13.89° C | 55% | 1024.5 hPa | 0 mm | - | - | - |
* Rain latest hour (hover to see other rain measurements)
** Current wind speed in m/s (hover to see current wind gust speed)